Regional Weather Roundup
Issued by NWS Kansas City/Pleasant Hill, MO

Home | Current Version | Previous Version | Text Only | Print | Product List | Glossary On
Versions: 1 2 3 4 5 6 7 8 9 10 11 12 13 14 15 16 17 18 19 20 21 22 23 24 25 26 27 28
000
ASUS43 KEAX 211010
RWREAX

WEATHER ROUNDUP FOR EASTERN KANSAS AND NORTHWEST MISSOURI
NATIONAL WEATHER SERVICE KANSAS CITY/PLEASANT HILL MO
400 AM CST WED FEB 21 2018

KSZ040-057-103>105-MOZ028-029-037-043-211100-
...KANSAS CITY METROPOLITAN AREA...

CITY           SKY/WX    TMP DP  RH WIND       PRES   REMARKS
K.C. INTL      CLOUDY    16  11  80 N10       30.49R WCI   4
K.C. DOWNTOWN  MOCLDY    19  12  74 NW10      30.50R WCI   7
LEES SUMMIT    MOCLDY    19  15  84 N14       30.46R WCI   6
OLATHE - IXD   CLOUDY    17  13  84 N17       30.47R WCI   1
OLATHE - OJC   CLOUDY    17  14  88 N14       30.46R WCI   3
LAWRENCE       CLOUDY    17  12  80 NW13      30.50R WCI   4

$$

MOZ001>008-011>017-020>025-030>033-038>040-044>046-053-054-211100-
...NORTHERN AND CENTRAL MISSOURI...

CITY           SKY/WX    TMP DP  RH WIND       PRES   REMARKS
ST. JOSEPH     CLOUDY    15  11  83 N13       30.54R WCI   1
MOSBY          MOSUNNY   19  14  79 N9        30.50R WCI   9
WARRENSBURG    CLOUDY    21  18  86 N6        30.45R WCI  14
WHITEMAN AFB   MOCLDY    22  17  82 N3        30.40R
CLINTON        CLOUDY    23  19  86 CALM      30.46R
SEDALIA        CLOUDY    24  22  91 N15       30.44R WCI  11
WARSAW         NOT AVBL
CHILLICOTHE      N/A     20  15  81 N5        30.50R WCI  13
KIRKSVILLE     MOCLDY    20  17  88 N12       30.44R WCI   8

$$

MOZ041-047>049-056>058-063>065-088>090-097-211100-
...EASTERN AND SOUTHERN MISSOURI...

CITY           SKY/WX    TMP DP  RH WIND       PRES   REMARKS
ST. LOUIS INTL FRZ RAIN  30  28  92 NW14      30.37R WCI  19
SPIRIT OF STL  FRZ RAIN  30  28  92 N14       30.37R WCI  19
COLUMBIA       CLOUDY    26  21  81 N14       30.40R WCI  14
JEFFERSON CITY CLOUDY    27  21  78 N12       30.43R WCI  17
ROLLA          CLOUDY    26  26 100 N9        30.36R WCI  17
OSAGE BEACH    CLOUDY    26  24  92 NE8       30.39S WCI  18
SPRINGFIELD    CLOUDY    27  25  92 N12       30.31R WCI  17
BRANSON        CLOUDY    30  30 100 N9        30.29F WCI  22
JOPLIN         CLOUDY    25  22  88 N14       30.38S WCI  13
WEST PLAINS    LGT RAIN  34  31  88 N12G21    30.28F WCI  25

$$

IAZ060-094-KSZ022-034>040-054-083-096-NEZ052-066-093-211100-
...KANSAS...SOUTHEAST NEBRASKA AND IOWA...

CITY           SKY/WX    TMP DP  RH WIND       PRES   REMARKS
TOPEKA         CLOUDY    15  10  80 N12       30.53R WCI   2
MANHATTAN      CLOUDY    15   7  70 N7        30.53R WCI   5
EMPORIA        PTCLDY    15  10  80 N14       30.45F WCI   0
CHANUTE        PTCLDY    20  15  81 N15G24    30.42  WCI   6
WICHITA        CLOUDY    16  10  77 N17G25    30.44R WCI   0
OMAHA          CLEAR      9   4  80 N7        30.54R WCI  -2
LINCOLN        CLEAR      7   2  80 N7        30.55R WCI  -5
FALLS CITY     CLEAR     12   6  77 N9        30.54R WCI   0
LAMONI         CLOUDY    13   8  81 N15G22    30.45S WCI  -3
DES MOINES     PTCLDY    13   7  77 N7        30.50R WCI   3

$$





USA.gov is the U.S. government's official web portal to all federal, state and local government web resources and services.